Regional Weather Roundup
Issued by NWS

Home | Current Version | Previous Version | Text Only | Print | Product List | Glossary On
Versions: 1 2 3 4 5 6 7 8 9 10 11 12 13 14 15 16 17 18 19 20 21 22 23 24 25 26 27 28 29 30 31 32 33 34 35 36 37 38 39 40 41 42 43 44 45 46 47 48 49 50
078
ASUS43 KDMX 170506
RWRIA

WEATHER ROUNDUP FOR IOWA
NATIONAL WEATHER SERVICE DES MOINES IA
1100 PM CST TUE JAN 16 2018

NOTE: "FAIR" INDICATES FEW OR NO CLOUDS BELOW 12,000 FEET WITH NO
SIGNIFICANT WEATHER AND/OR OBSTRUCTIONS TO VISIBILITY.

* - THESE STATIONS ARE NOT NWS STATIONS...THUS NOT UNDER NWS
QUALITY CONTROL.  THEY ALSO DO NOT REPORT WEATHER SUCH
AS PRECIPITATION OR FOG.

IAZ001>003-012>014-020>022-031>034-043>046-170600-
   NORTHWEST IOWA

CITY           SKY/WX    TMP DP  RH WIND       PRES   REMARKS
CARROLL *      CLOUDY     0  -4  85 CALM      30.60F
CHEROKEE *     CLOUDY    -5  -8  88 CALM      30.59F
DENISON *      CLOUDY    -2  -6  84 CALM      30.63S
LE MARS *      CLOUDY    -2  -6  84 CALM      30.58F
ORANGE CITY *  CLEAR      1   0  92 S3        30.56S
SHELDON *      CLOUDY    -2  -6  84 SW7       30.53F WCI -16
SIOUX CITY     CLOUDY    -3  -7  82 E8        30.61F WCI -18
SPENCER        CLOUDY    -5 -10  79 SW7       30.55F WCI -19
STORM LAKE *   CLEAR     -2  -6  84 SW10      30.56S WCI -19
$$

IAZ055>058-069>071-079>083-090>094-170600-
   SOUTHWEST IOWA

CITY           SKY/WX    TMP DP  RH WIND       PRES   REMARKS
ATLANTIC *     CLOUDY    -4  -8  84 CALM      30.64F
AUDUBON *      CLEAR     -6  -9  84 CALM      30.61F
CLARINDA *     CLOUDY    -6  -9  84 CALM      30.70S
COUNCIL BLFS * CLOUDY     3   3 100 S5        30.63S WCI  -6
CRESTON *      CLOUDY    -2  -6  84 W6        30.63F WCI -14
HARLAN  *      CLOUDY    -4  -8  84 S5        30.67S WCI -15
LAMONI         CLOUDY    -1  -5  82 W7        30.64F WCI -14
RED OAK *      CLOUDY    -4  -8  84 CALM      30.67F
SHENANDOAH *   CLOUDY    -4  -8  84 S3        30.69S
$$

IAZ047>049-059>061-072>074-084-170600-
   CENTRAL IOWA

CITY           SKY/WX    TMP DP  RH WIND       PRES   REMARKS
AMES           CLOUDY    -5  -7  91 SW6       30.63F WCI -18
ANKENY *       CLOUDY    -6  -9  84 CALM      30.66F
BOONE *        CLOUDY     0  -4  85 W7        30.59F WCI -13
CHARITON *     CLOUDY     0  -4  85 W7        30.64F WCI -13
DES MOINES     CLOUDY    -1  -6  79 SW7       30.64F WCI -14
GRINNELL*      CLOUDY    -2  -5  85 W6        30.63F WCI -14
KNOXVILLE *    CLOUDY    -2  -8  78 W7        30.63F WCI -16
MARSHALLTOWN   CLOUDY    -3  -7  82 W9        30.61F WCI -19
NEWTON *       CLOUDY    -4  -8  84 W3        30.64S
PELLA *        CLOUDY     0  -3  85 W3        30.66F
PERRY *          N/A     -4  -8  84 SW8       30.63F WCI -19
$$

IAZ004>006-015-016-023>025-035-036-170600-
   NORTH CENTRAL IOWA

CITY           SKY/WX    TMP DP  RH WIND       PRES   REMARKS
ALGONA *       CLOUDY    -2  -2 100 SW9       30.55F WCI -18
CLARION *      CLOUDY    -6  -9  84 SW7       30.59F WCI -20
ESTHERVILLE    CLOUDY    -1  -4  87 SW12      30.53F WCI -18
FORT DODGE *   CLOUDY    -7 -11  83 CALM      30.60S
MASON CITY     CLOUDY     0  -5  79 SW7       30.57F WCI -13
FOREST CITY *    N/A     -2  -6  84 W3        30.56F
WEBSTER CITY * CLOUDY    -6 -11  77 SW6       30.59S WCI -18
IOWA FALLS *     N/A     -1  -5  83 SW9       30.60F WCI -17
$$

IAZ007>011-017>019-026>030-037>042-050>054-066-170600-
   NORTHEAST IOWA

CITY           SKY/WX    TMP DP  RH WIND       PRES   REMARKS
CEDAR RAPIDS     N/A      0  -5  79 W8        30.61S WCI -14
CHARLES CITY * CLOUDY    -4  -8  84 W5        30.58S WCI -15
CLINTON *        N/A     -1  -4  87 W9        30.60F WCI -16
DECORAH *        N/A     -2  -6  84 W6        30.54F WCI -14
DUBUQUE          N/A     -2  -6  83 W5        30.56S WCI -12
MONTICELLO *   MOCLDY     0  -4  85 W5        30.60S WCI -10
OELWEIN *        N/A     -4  -4 100 W8        30.58F WCI -19
WATERLOO         N/A     -2  -7  79 W5        30.61F WCI -12
$$

IAZ064-065-067-068-078-170600-
   EAST CENTRAL IOWA

CITY           SKY/WX    TMP DP  RH WIND       PRES   REMARKS
DAVENPORT        N/A      3  -3  76 W8        30.62F WCI -10
IOWA CITY        N/A      0  -5  79 W3        30.65F
MT. PLEASANT * CLOUDY     1  -4  78 W6        30.65F WCI -10
MUSCATINE *      N/A      3  -2  78 W8        30.66F WCI -10
QUAD CITIES      N/A      4  -1  80 W7        30.62F WCI  -8
$$

IAZ062-063-075>077-085>089-095>099-170600-
   SOUTHEAST IOWA

CITY           SKY/WX    TMP DP  RH WIND       PRES   REMARKS
BURLINGTON     CLOUDY     1  -4  79 W5        30.65S WCI  -9
FAIRFIELD *    CLOUDY     1  -6  71 W9        30.64F WCI -14
FORT MADISON * CLOUDY     1  -2  85 W8        30.66S WCI -12
KEOKUK *       CLEAR      1  -2  85 W7        30.66F WCI -11
OSKALOOSA *      N/A     -2  -6  85 W7        30.65F WCI -16
OTTUMWA        CLOUDY    -1  -6  79 W6        30.65F WCI -13
WASHINGTON *   CLOUDY     0  -4  85 W7        30.66S WCI -13
$$

ABBREVIATIONS USED IN REMARKS
   TC - TEMPERATURES IN CELSIUS
  WCI - WIND CHILL INDEX
   HX - HEAT INDEX
  VSB - VISIBILITY
$$





USA.gov is the U.S. government's official web portal to all federal, state and local government web resources and services.